This is the latest recevied weather packets stored in our database for station/object OK1FET-4. If no packets are shown the sender has not sent any weather packets the latest 1 day(s).
| Time | Temp. | Humidity | Pressure | Rain* | Wind** | Luminosity | Snow |
|---|---|---|---|---|---|---|---|
| 1777964271 | 20° C | 93% | 1009.1 hPa | - | 0.45 m/s, 52° | - | - |
| 1777963970 | 18.89° C | 93% | 1009.2 hPa | - | 0.45 m/s, 27° | - | - |
| 1777963970 | 18.89° C | 93% | 1009.2 hPa | - | 0.45 m/s, 27° | - | - |
| 1777963970 | 18.89° C | 93% | 1009.2 hPa | - | 0.45 m/s, 27° | - | - |
| 1777963669 | 18.33° C | 94% | 1009.2 hPa | - | 0 m/s | - | - |
| 1777963669 | 18.33° C | 94% | 1009.2 hPa | - | 0 m/s | - | - |
| 1777963368 | 17.22° C | 94% | 1009.2 hPa | - | 0.89 m/s, 265° | - | - |
| 1777963368 | 17.22° C | 94% | 1009.2 hPa | - | 0.89 m/s, 265° | - | - |
| 1777963368 | 17.22° C | 94% | 1009.2 hPa | - | 0.89 m/s, 265° | - | - |
| 1777963067 | 16.67° C | 94% | 1009.2 hPa | - | 1.34 m/s, 242° | - | - |
| 1777963067 | 16.67° C | 94% | 1009.2 hPa | - | 1.34 m/s, 242° | - | - |
| 1777963067 | 16.67° C | 94% | 1009.2 hPa | - | 1.34 m/s, 242° | - | - |
| 1777962766 | 16.11° C | 93% | 1009.3 hPa | - | 1.34 m/s, 237° | - | - |
| 1777962766 | 16.11° C | 93% | 1009.3 hPa | - | 1.34 m/s, 237° | - | - |
| 1777962466 | 16.11° C | 94% | 1009.4 hPa | - | 1.34 m/s, 263° | - | - |
| 1777962465 | 16.11° C | 94% | 1009.4 hPa | - | 1.34 m/s, 263° | - | - |
| 1777962465 | 16.11° C | 94% | 1009.4 hPa | - | 1.34 m/s, 263° | - | - |
| 1777962165 | 16.11° C | 94% | 1009.4 hPa | - | 1.79 m/s, 273° | - | - |
| 1777962165 | 16.11° C | 94% | 1009.4 hPa | - | 1.79 m/s, 273° | - | - |
| 1777962165 | 16.11° C | 94% | 1009.4 hPa | - | 1.79 m/s, 273° | - | - |
| 1777961864 | 16.11° C | 93% | 1009.3 hPa | - | 1.34 m/s, 234° | - | - |
| 1777961864 | 16.11° C | 93% | 1009.3 hPa | - | 1.34 m/s, 234° | - | - |
| 1777961563 | 16.11° C | 93% | 1009.4 hPa | - | 0.89 m/s, 230° | - | - |
| 1777961563 | 16.11° C | 93% | 1009.4 hPa | - | 0.89 m/s, 230° | - | - |
| 1777961563 | 16.11° C | 93% | 1009.4 hPa | - | 0.89 m/s, 230° | - | - |
* Rain since midnight (hover to see other rain measurements)
** Current wind speed in m/s (hover to see current wind gust speed)